Paducah, KY

5:49 AM CDT on May 29, 2017 (GMT -0500)
Barkley Regional

Weather History for KPAH - July, 2012

Change the Weather History Date:

Wednesday, July 4, 2012

  Actual Average Record
Temperature  
Mean Temperature 88 °F 79 °F  
Max Temperature 101 °F 89 °F 101 °F (2012)
Min Temperature 74 °F 69 °F 52 °F (1968)
Degree Days  
Heating Degree Days 0 0  
Month to date heating degree days 0 0  
Since 1 June heating degree days 7 4  
Since 1 July heating degree days 0 0  
Cooling Degree Days 23 14  
Month to date cooling degree days 93 56  
Year to date cooling degree days 832 548  
Since 1 June cooling degree days 449 376  
Growing Degree Days 36 (Base 50)    
Moisture  
Dew Point 71 °F    
Average Humidity 59    
Maximum Humidity 85    
Minimum Humidity 33    
Precipitation  
Precipitation 0.25 in 0.14 in 3.44 in (1984)
Month to date precipitation 0.26 0.58  
Year to date precipitation 11.85 25.86  
Snow  
Snow 0.00 in 0.00 in T in (1992)
Month to date snowfall 0.0 0.0  
Since 1 June snowfall 0.0 0.0  
Since 1 July snowfall 0.0 0.0  
Snow Depth 0.00 in    
Sea Level Pressure  
Sea Level Pressure 29.94 in    
Wind  
Wind Speed 3 mph (South)    
Max Wind Speed 28 mph    
Max Gust Speed 53 mph    
Visibility 9 miles    
Events Rain , Thunderstorm    
T = Trace of Precipitation, MM = Missing Value Source: NWS Daily Summary

Daily Weather History Graph

Daily Weather History Graph

Search for Another Location

Airport or City:

Trip Planner

Search our weather history database for the weather conditions in past years. The results will help you decide how hot, cold, wet, or windy it might be!

Date:

Astronomy

Jul. 04, 2012 Rise Set
Actual Time 5:40 AM CDT 8:18 PM CDT
Civil Twilight 5:10 AM CDT 8:48 PM CDT
Nautical Twilight 4:31 AM CDT 9:26 PM CDT
Astronomical Twilight 3:49 AM CDT 10:09 PM CDT
Moon 9:00 PM CDT (7/4) 6:40 AM CDT (7/4)
Length of Visible Light 15h 38m
Length of Day
14h 37m
Full, 99% of the Moon is Illuminated
Jul 4
Full
Jul 10
Last Quarter
Jul 18
New
Jul 26
First Quarter
Aug 1
Full

Hourly Weather History & Observations

Time (CDT) Temp. Heat Index Dew Point Humidity Pressure Visibility Wind Dir Wind Speed Gust Speed Precip Events Conditions
12:53 AM 78.1 °F - 69.1 °F 74% 29.91 in 10.0 mi Calm Calm - N/A   Clear
1:53 AM 75.0 °F - 70.0 °F 84% 29.91 in 10.0 mi Calm Calm - N/A   Clear
2:53 AM 77.0 °F - 69.8 °F 78% 29.92 in 10.0 mi Calm Calm - N/A   Clear
3:53 AM 77.0 °F - 69.1 °F 76% 29.92 in 10.0 mi SW 3.5 mph - N/A   Clear
4:53 AM 75.9 °F - 69.1 °F 79% 29.93 in 10.0 mi SSW 3.5 mph - N/A   Clear
5:53 AM 75.0 °F - 69.1 °F 82% 29.94 in 10.0 mi Calm Calm - N/A   Clear
6:53 AM 77.0 °F - 70.0 °F 79% 29.95 in 10.0 mi Calm Calm - N/A   Clear
7:53 AM 82.9 °F 87.0 °F 70.0 °F 65% 29.96 in 10.0 mi West 5.8 mph - N/A   Partly Cloudy
8:53 AM 86.0 °F 90.7 °F 70.0 °F 59% 29.97 in 9.0 mi WSW 6.9 mph - N/A   Mostly Cloudy
9:53 AM 91.0 °F 95.6 °F 69.1 °F 48% 29.96 in 10.0 mi WSW 4.6 mph - N/A   Partly Cloudy
10:53 AM 93.0 °F 100.1 °F 71.1 °F 49% 29.96 in 10.0 mi Calm Calm - N/A   Clear
11:53 AM 98.1 °F 101.2 °F 64.9 °F 34% 29.96 in 10.0 mi Calm Calm - N/A   Clear
12:53 PM 97.0 °F 100.4 °F 66.0 °F 36% 29.94 in 10.0 mi West 3.5 mph - N/A   Scattered Clouds
1:29 PM 87.8 °F 92.6 °F 69.8 °F 55% 29.96 in 10.0 mi South 12.7 mph 26.5 mph N/A Thunderstorm Thunderstorm
1:53 PM 90.0 °F 93.6 °F 68.0 °F 48% 29.96 in 10.0 mi South 6.9 mph - N/A Thunderstorm Thunderstorm
2:09 PM 84.2 °F 90.9 °F 73.4 °F 70% 29.98 in 1.8 mi NNE 26.5 mph 52.9 mph 0.04 in Rain , Thunderstorm Heavy Thunderstorms and Rain
2:24 PM 80.6 °F 83.9 °F 69.8 °F 70% 29.96 in 3.0 mi ESE 3.5 mph - 0.23 in Rain , Thunderstorm Thunderstorms and Rain
2:32 PM 80.6 °F 86.2 °F 75.2 °F 84% 29.96 in 8.0 mi SE 4.6 mph - 0.24 in Rain Light Rain
2:40 PM 80.6 °F 85.4 °F 73.4 °F 79% 29.97 in 10.0 mi NE 10.4 mph - 0.24 in Thunderstorm Thunderstorm
2:53 PM 81.0 °F 84.9 °F 71.1 °F 72% 29.95 in 5.0 mi ENE 13.8 mph - 0.25 in Rain , Thunderstorm Thunderstorms and Rain
3:05 PM 80.6 °F 84.6 °F 71.6 °F 74% 29.95 in 10.0 mi ENE 5.8 mph - 0.00 in Rain Light Rain
3:53 PM 80.1 °F 85.1 °F 75.0 °F 85% 29.93 in 10.0 mi ESE 3.5 mph - 0.00 in   Partly Cloudy
4:53 PM 86.0 °F 93.4 °F 73.4 °F 66% 29.92 in 10.0 mi Calm Calm - N/A   Clear
5:53 PM 91.0 °F 99.3 °F 73.0 °F 55% 29.90 in 10.0 mi SE 6.9 mph - N/A   Clear
6:53 PM 91.9 °F 99.5 °F 72.0 °F 52% 29.89 in 10.0 mi Calm Calm - N/A   Clear
7:53 PM 87.1 °F 94.5 °F 73.0 °F 63% 29.89 in 10.0 mi SSE 4.6 mph - N/A   Clear
8:53 PM 81.0 °F 86.2 °F 73.9 °F 79% 29.90 in 10.0 mi Calm Calm - N/A   Clear
9:53 PM 82.0 °F 87.9 °F 73.9 °F 76% 29.91 in 10.0 mi South 3.5 mph - N/A   Clear
10:53 PM 82.0 °F 87.9 °F 73.9 °F 76% 29.93 in 10.0 mi South 3.5 mph - N/A   Clear
11:53 PM 79.0 °F - 73.0 °F 82% 29.94 in 10.0 mi WSW 3.5 mph - N/A   Clear